Find Starlink 30585

NORAD ID: 58063 Int'l Des: 2023-158 Owner: SPXS Country: US Constellation: starlink operational
LEOCIRCULAR

当前视图

正在加载3D地球...

About Starlink 30585

Starlink 30585 (NORAD 58063) is a starlink constellation satellite (v2 mini) launched Oct 13, 2023 by SPXS of US. It operates in LEO, CIRCULAR orbit with a mass of 730.00 kg.

即将过境

Passes for default location (London). Set your location on the main map for personalized predictions.

高度历史

Loading altitude history...

两行轨道根数

1 58063U 23158N 26235.19293018 .00004159 00000-0 16061-3 0 9998
2 58063 43.0026 166.7989 0001348 259.8596 100.2104 15.27573349159037
Epoch: Aug 23, 2026 • Age: 20 hours

当前状态

高度 489.1 km
远地点 / 近地点 N/A
速度 7.62 km/s
星下点 -26.67°S, 35.85°E
发射日期 Oct 13, 2023
运行时间 2.8 years
类型 internet

技术详情

分类 Payload
质量 730.00 kg
干质量 700.00 kg
总质量 730.00 kg
长度 0.30 m
直径 4.10 m
跨度 29.00 m
形状 Box + pan
制造商 SPXS
平台类型 Starlink V2M
阶段状态 In Orbit
所有者/国家 SPXS/US

Most Searched